Location: Songkhla
(7.2000°N, 100.6000°E)
Time: 20:06:37
(UTC+07:00)

ISS - Pass Details

Date: 24 April 2026
Orbit: 414 x 424 km, 51.6° (Epoch: 19 May)

Event Time Altitude Azimuth Distance (km) Brightness Sun altitude
Rises 10:52:43 0° 343° (NNW) 2,365 0.1 68.8°
Reaches altitude 10° 10:55:06 10° 358° (N) 1,502 -0.7 69.3°
Maximum altitude 10:57:51 23° 53° (NE) 944 -1.3 70.0°
Drops below altitude 10° 11:00:37 10° 108° (ESE) 1,504 -0.6 70.7°
Sets 11:02:59 0° 123° (ESE) 2,369 0.2 71.2°
